Date,TemperatureHighF,TemperatureAvgF,TemperatureLowF,DewpointHighF,DewpointAvgF,DewpointLowF,HumidityHigh,HumidityAvg,HumidityLow,PressureMaxIn,PressureMinIn,WindSpeedMaxMPH,WindSpeedAvgMPH,GustSpeedMaxMPH,PrecipitationSumIn
2013-2-1,43,36,25,27,10,-9,63,40,17,30.41,29.88,18,5,18,0.00
2013-2-2,47,33,18,32,6,-5,70,36,18,30.42,30.05,13,2,13,0.00
2013-2-3,53,41,34,34,26,18,85,59,30,30.05,29.87,14,3,14,0.00
2013-2-4,53,38,26,25,18,8,74,47,21,30.17,30.02,12,2,12,0.00
2013-2-5,67,47,38,33,29,20,75,53,23,30.03,29.91,11,2,11,0.00
2013-2-6,68,45,31,36,25,9,86,55,14,30.31,29.99,10,1,10,0.00
2013-2-7,47,40,34,41,33,24,95,77,60,30.37,30.03,8,1,8,0.50
2013-2-8,51,44,41,42,32,26,97,64,50,30.07,29.88,11,4,11,0.31
2013-2-9,59,40,29,26,18,6,77,48,17,30.38,30.06,10,2,10,0.00
2013-2-10,59,38,24,38,20,9,85,55,19,30.51,30.22,7,1,7,0.05
2013-2-11,47,44,43,44,41,38,91,89,85,30.23,30.14,4,0,4,0.00
2013-2-12,50,50,47,44,37,34,91,62,56,30.14,29.97,3,0,3,0.06
2013-2-14,50,37,32,37,31,28,84,79,63,30.08,29.97,2,0,2,0.39
2013-2-15,32,31,30,28,27,26,88,86,84,30.10,30.06,2,0,2,0.00
2013-2-16,45,36,30,34,31,23,95,84,62,30.00,29.86,8,1,8,0.20
2013-2-17,42,30,22,23,9,-4,75,45,18,30.30,29.94,10,1,10,0.00
2013-2-18,57,35,17,24,14,6,78,47,17,30.43,30.26,7,1,7,0.00
2013-2-19,50,42,32,48,36,23,96,82,56,30.26,29.88,11,2,11,0.19
2013-2-20,56,40,28,36,17,4,96,45,16,30.17,29.99,14,2,14,0.00
2013-2-21,60,40,25,24,16,8,65,40,17,30.28,30.14,7,2,7,0.00
2013-2-22,42,36,32,33,29,19,91,77,41,30.37,30.15,4,1,4,0.21
2013-2-23,44,40,36,42,38,33,98,94,91,30.14,29.84,5,1,5,0.34
2013-2-24,69,50,38,46,34,11,97,65,15,30.07,29.81,11,2,11,0.00
2013-2-25,44,37,32,30,22,18,73,56,40,30.25,30.06,9,1,9,0.00
2013-2-26,55,43,34,54,39,22,99,85,58,30.18,29.59,8,2,8,0.74
2013-2-27,64,50,42,44,38,28,98,69,32,29.81,29.64,14,3,14,0.00
2013-2-28,53,43,33,38,29,22,89,62,31,29.88,29.72,13,2,13,0.00